• In India
  • List of Countries
  • For 7 days
  • Water Temperature
  • Satellite Maps
  • Weather Map
  • Weather Widgets
  • user-avatar
    Login

    Hourly Weather Berat

    Today, 18 November, Sunday

    Time Temperature Precipitation Wind Pressure Humidity
    00:00 +7°C° 0.5 mm 4 mps 746 mmHg 77%
    01:00 +8°C° 0 mm 3 mps 746 mmHg 77%
    02:00 +8°C° 0.4 mm 3 mps 745 mmHg 77%
    03:00 +7°C° 0.4 mm 4 mps 745 mmHg 78%
    04:00 +7°C° 0.4 mm 4 mps 745 mmHg 78%
    05:00 +7°C° 1.4 mm 4 mps 744 mmHg 79%
    06:00 +7°C° 1.4 mm 4 mps 744 mmHg 80%
    07:00 +7°C° 1.4 mm 4 mps 744 mmHg 81%
    08:00 +7°C° 2.2 mm 4 mps 744 mmHg 81%
    09:00 +7°C° 2.2 mm 4 mps 743 mmHg 82%
    10:00 +7°C° 2.2 mm 4 mps 743 mmHg 82%
    11:00 +7°C° 2.3 mm 4 mps 743 mmHg 83%
    12:00 +7°C° 2.3 mm 4 mps 742 mmHg 84%
    13:00 +7°C° 2.3 mm 4 mps 742 mmHg 85%
    14:00 +8°C° 1.8 mm 3 mps 741 mmHg 85%
    15:00 +8°C° 1.8 mm 3 mps 741 mmHg 85%
    16:00 +8°C° 1.8 mm 3 mps 740 mmHg 85%
    17:00 +8°C° 0.5 mm 3 mps 740 mmHg 86%
    18:00 +8°C° 0.5 mm 3 mps 740 mmHg 86%
    19:00 +8°C° 0.5 mm 2 mps 740 mmHg 87%
    20:00 +8°C° 0.2 mm 2 mps 740 mmHg 87%
    21:00 +8°C° 0.2 mm 2 mps 740 mmHg 87%
    22:00 +9°C° 0.2 mm 1 mps 740 mmHg 86%
    23:00 +8°C° 0 mm 1 mps 740 mmHg 86%

    Tomorrow, 19 November, Monday

    Time Temperature Precipitation Wind Pressure Humidity
    00:00 +8°C° 0 mm 1 mps 740 mmHg 85%
    01:00 +8°C° 0 mm 1 mps 740 mmHg 85%
    02:00 +8°C° 0 mm 1 mps 740 mmHg 84%
    03:00 +8°C° 0 mm 1 mps 740 mmHg 84%
    04:00 +7°C° 0 mm 1 mps 740 mmHg 84%
    05:00 +8°C° 0 mm 1 mps 741 mmHg 83%
    06:00 +8°C° 0 mm 1 mps 741 mmHg 83%
    07:00 +8°C° 0 mm 1 mps 741 mmHg 82%
    08:00 +9°C° 0 mm 1 mps 741 mmHg 79%
    09:00 +11°C° 0 mm 1 mps 742 mmHg 76%
    10:00 +12°C° 0 mm 2 mps 742 mmHg 73%
    11:00 +13°C° 0 mm 2 mps 742 mmHg 71%
    12:00 +13°C° 0 mm 2 mps 742 mmHg 70%
    13:00 +14°C° 0 mm 2 mps 742 mmHg 68%
    14:00 +13°C° 0 mm 2 mps 742 mmHg 72%
    15:00 +13°C° 0 mm 2 mps 742 mmHg 75%
    16:00 +11°C° 0 mm 3 mps 742 mmHg 78%
    17:00 +11°C° 0 mm 3 mps 743 mmHg 80%
    18:00 +10°C° 0 mm 3 mps 743 mmHg 83%
    19:00 +10°C° 0 mm 4 mps 743 mmHg 85%
    20:00 +10°C° 0.7 mm 4 mps 743 mmHg 85%
    21:00 +10°C° 0.7 mm 4 mps 743 mmHg 85%
    22:00 +10°C° 0.7 mm 4 mps 743 mmHg 85%
    23:00 +10°C° 0.7 mm 4 mps 743 mmHg 85%

    Day after tomorrow, 20 November, Tuesday

    Time Temperature Precipitation Wind Pressure Humidity
    00:00 +9°C° 0.7 mm 5 mps 743 mmHg 85%
    01:00 +10°C° 0.7 mm 5 mps 743 mmHg 84%
    02:00 +10°C° 0.1 mm 5 mps 743 mmHg 84%
    03:00 +10°C° 0.1 mm 5 mps 742 mmHg 83%
    04:00 +10°C° 0.1 mm 5 mps 742 mmHg 82%
    05:00 +10°C° 0.2 mm 5 mps 743 mmHg 82%
    06:00 +10°C° 0.2 mm 5 mps 743 mmHg 81%
    07:00 +10°C° 0.2 mm 5 mps 743 mmHg 80%
    08:00 +10°C° 0.4 mm 5 mps 743 mmHg 80%
    09:00 +12°C° 0.4 mm 5 mps 743 mmHg 81%
    10:00 +11°C° 0.4 mm 6 mps 743 mmHg 81%
    11:00 +13°C° 0.6 mm 5 mps 743 mmHg 82%
    12:00 +13°C° 0.6 mm 5 mps 742 mmHg 84%
    13:00 +13°C° 0.6 mm 5 mps 742 mmHg 85%
    14:00 +13°C° 0.7 mm 5 mps 742 mmHg 85%
    15:00 +13°C° 0.7 mm 5 mps 742 mmHg 86%
    16:00 +13°C° 0.7 mm 5 mps 741 mmHg 86%
    17:00 +13°C° 1.3 mm 5 mps 741 mmHg 87%
    18:00 +12°C° 1.3 mm 5 mps 741 mmHg 88%
    19:00 +12°C° 1.3 mm 5 mps 741 mmHg 89%
    20:00 +12°C° 1.3 mm 5 mps 741 mmHg 89%
    21:00 +12°C° 1.3 mm 5 mps 741 mmHg 89%
    22:00 +12°C° 1.3 mm 4 mps 741 mmHg 89%
    23:00 +12°C° 1.3 mm 4 mps 741 mmHg 90%

    21 November, Wednesday

    Time Temperature Precipitation Wind Pressure Humidity
    00:00 +12°C° 1.3 mm 4 mps 740 mmHg 90%
    01:00 +12°C° 1.3 mm 4 mps 740 mmHg 90%
    02:00 +12°C° 2.4 mm 4 mps 740 mmHg 91%
    03:00 +12°C° 2.4 mm 3 mps 739 mmHg 92%
    04:00 +12°C° 2.4 mm 3 mps 739 mmHg 92%
    05:00 +12°C° 0.6 mm 3 mps 739 mmHg 92%
    06:00 +12°C° 0.6 mm 3 mps 740 mmHg 92%
    07:00 +13°C° 0.6 mm 2 mps 740 mmHg 92%
    08:00 +14°C° 0.2 mm 2 mps 740 mmHg 88%
    09:00 +15°C° 0.2 mm 2 mps 741 mmHg 84%
    10:00 +16°C° 0.2 mm 2 mps 741 mmHg 79%
    11:00 +16°C° 0.2 mm 2 mps 741 mmHg 77%
    12:00 +17°C° 0.2 mm 2 mps 741 mmHg 74%
    13:00 +17°C° 0.2 mm 2 mps 741 mmHg 72%
    14:00 +16°C° 0.3 mm 2 mps 741 mmHg 77%
    15:00 +16°C° 0.3 mm 2 mps 741 mmHg 82%
    16:00 +15°C° 0.3 mm 2 mps 741 mmHg 87%
    17:00 +15°C° 0.3 mm 2 mps 742 mmHg 89%
    18:00 +14°C° 0.3 mm 2 mps 742 mmHg 91%
    19:00 +14°C° 0.3 mm 1 mps 743 mmHg 93%
    20:00 +13°C° 0.1 mm 1 mps 743 mmHg 93%
    21:00 +13°C° 0.1 mm 1 mps 743 mmHg 92%
    22:00 +13°C° 0.1 mm 1 mps 744 mmHg 92%
    23:00 +13°C° 0.1 mm 2 mps 744 mmHg 91%

    22 November, Thursday

    Time Temperature Precipitation Wind Pressure Humidity
    00:00 +13°C° 0.1 mm 2 mps 744 mmHg 90%
    01:00 +13°C° 0.1 mm 2 mps 744 mmHg 90%
    02:00 +13°C° 0.1 mm 2 mps 744 mmHg 90%
    03:00 +12°C° 0.1 mm 2 mps 744 mmHg 90%
    04:00 +12°C° 0.1 mm 2 mps 744 mmHg 90%
    05:00 +12°C° 0 mm 2 mps 744 mmHg 89%
    06:00 +12°C° 0 mm 2 mps 745 mmHg 89%
    07:00 +12°C° 0 mm 2 mps 745 mmHg 89%
    08:00 +13°C° 0 mm 2 mps 745 mmHg 84%
    09:00 +15°C° 0 mm 2 mps 745 mmHg 79%
    10:00 +16°C° 0 mm 2 mps 746 mmHg 74%
    11:00 +17°C° 0 mm 2 mps 746 mmHg 71%
    12:00 +17°C° 0 mm 2 mps 746 mmHg 68%
    13:00 +18°C° 0 mm 2 mps 745 mmHg 66%
    14:00 +17°C° 0 mm 2 mps 746 mmHg 70%
    15:00 +16°C° 0 mm 1 mps 746 mmHg 74%
    16:00 +15°C° 0 mm 1 mps 746 mmHg 78%
    17:00 +15°C° 0 mm 1 mps 746 mmHg 81%
    18:00 +14°C° 0 mm 1 mps 747 mmHg 84%
    19:00 +12°C° 0 mm 0 mps 747 mmHg 87%
    20:00 +12°C° 0 mm 0 mps 747 mmHg 87%
    21:00 +13°C° 0 mm 1 mps 748 mmHg 87%
    22:00 +12°C° 0 mm 1 mps 748 mmHg 88%
    23:00 +12°C° 0 mm 1 mps 748 mmHg 87%

    23 November, Friday

    Time Temperature Precipitation Wind Pressure Humidity
    00:00 +12°C° 0 mm 1 mps 748 mmHg 87%
    01:00 +12°C° 0 mm 1 mps 748 mmHg 86%
    02:00 +12°C° 0 mm 1 mps 748 mmHg 86%
    03:00 +11°C° 0 mm 1 mps 749 mmHg 85%
    04:00 +11°C° 0 mm 1 mps 749 mmHg 84%
    05:00 +11°C° 0 mm 1 mps 749 mmHg 84%
    06:00 +11°C° 0 mm 1 mps 749 mmHg 83%
    07:00 +10°C° 0 mm 2 mps 749 mmHg 83%
    08:00 +13°C° 0 mm 1 mps 750 mmHg 77%
    09:00 +15°C° 0 mm 1 mps 750 mmHg 71%
    10:00 +16°C° 0 mm 1 mps 750 mmHg 65%
    11:00 +18°C° 0 mm 1 mps 750 mmHg 62%
    12:00 +19°C° 0 mm 1 mps 750 mmHg 59%
    13:00 +19°C° 0 mm 1 mps 749 mmHg 56%
    14:00 +18°C° 0 mm 1 mps 749 mmHg 60%
    15:00 +16°C° 0 mm 1 mps 749 mmHg 65%
    16:00 +15°C° 0 mm 1 mps 749 mmHg 69%
    17:00 +15°C° 0 mm 1 mps 750 mmHg 72%
    18:00 +14°C° 0 mm 1 mps 750 mmHg 75%
    19:00 +13°C° 0 mm 1 mps 750 mmHg 78%
    20:00 +13°C° 0 mm 1 mps 750 mmHg 78%
    21:00 +13°C° 0 mm 1 mps 750 mmHg 79%
    22:00 +12°C° 0 mm 2 mps 750 mmHg 79%
    23:00 +12°C° 0 mm 2 mps 750 mmHg 79%
    Show more